Regional Weather Roundup
Issued by NWS

Home | Current Version | Previous Version | Text Only | Print | Product List | Glossary Off
Versions: 1 2 3 4 5 6 7 8 9 10 11 12 13 14 15 16 17 18 19 20 21 22 23 24 25 26 27 28 29 30 31 32 33 34 35 36 37 38 39 40 41 42 43 44 45 46 47 48 49 50

000
ASUS43 KFSD 161710
RWRSD

WEATHER ROUNDUP FOR SOUTH DAKOTA
NATIONAL WEATHER SERVICE SIOUX FALLS SD
1200 PM CDT WED APR 16 2014

NOTE: "FAIR" INDICATES FEW OR NO CLOUDS BELOW 12,000 FEET WITH NO
SIGNIFICANT WEATHER AND/OR OBSTRUCTIONS TO VISIBILITY.


SDZ001>005-009-010-012>017-161800-
NORTHWEST AND NORTH CENTRAL SOUTH DAKOTA

CITY           SKY/WX    TMP DP  RH WIND       PRES   REMARKS
BUFFALO          N/A     36  20  52 NE14      29.91R
FAITH            N/A     36  22  56 N17       29.95R
MOBRIDGE       CLOUDY    31  24  75 NE15      29.96R WCI  20
$$

SDZ012>016-024>037-041>051-057-063-072>074-161800-
SOUTHWEST AND SOUTH CENTRAL SOUTH DAKOTA

CITY           SKY/WX    TMP DP  RH WIND       PRES   REMARKS
RAPID CTY ARPT CLOUDY    38  29  70 N24G35    29.93R
PIERRE         CLOUDY    32  27  81 N22       29.91R WCI  19
CUSTER         PTSUNNY   39  26  59 N8G18     29.87R
ELLSWORTH AFB  PTSUNNY   38  28  69 N23       29.93R
PHILIP         CLOUDY    33  28  81 N15       29.94R WCI  23
PINE RIDGE     LGT RAIN  37  34  89 N13       29.91R
SPEARFISH      PTSUNNY   37  32  81 NW14      29.96R
WINNER         MIX PCPN  32  29  88 N22G30    29.84R WCI  19
$$

SDZ004>011-016>023-039-040-161800-
NORTHEAST SOUTH DAKOTA

CITY           SKY/WX    TMP DP  RH WIND       PRES   REMARKS
ABERDEEN       CLOUDY    30  26  85 NE24G32   29.93R WCI  16
WATERTOWN      HVY SNOW  27  25  92 NE22G31   29.81R VSB 1/4 WCI  13
SISSETON         N/A     29  27  92 E20       29.93R WCI  16
$$

SDZ017-020-022-023-036>040-048>070-161800-
SOUTHEAST SOUTH DAKOTA

CITY           SKY/WX    TMP DP  RH WIND       PRES   REMARKS
SIOUX FALLS    CLOUDY    47  37  68 S13       29.65R
HURON          LGT SNOW  31  28  89 N22G29    29.81R VSB 1   WCI  18
MITCHELL       CLOUDY    36  32  85 N23G30    29.72R
YANKTON        CLOUDY    48  32  53 SW15      29.64R
$$

ABBREVIATIONS USED IN REMARKS
   TC - TEMPERATURE IN CELSIUS
  WCI - WIND CHILL INDEX
   HX - HEAT INDEX
  VSB - VISIBILITY




USA.gov is the U.S. government's official web portal to all federal, state and local government web resources and services.